Theta_e
340 342 347 348 345 343 341 342 349 348 349 349 349 349 348 345 345 347 345 346 343 337
337 341 343 345 344 340 345 338 341 343 343 342 342 343 345 342 343 344 344 345 344 340
335 337 338 338 337 337 336 333 333 335 337 338 338 340 342 339 341 342 341 340 342 343
331 331 331 331 331 332 336 332 330 331 332 332 334 336 337 337 334 336 336 336 334 334
327 327 328 328 329 332 332 331 331 328 327 329 329 331 331 330 328 327 327 327 325 324
321 323 326 328 329 330 330 331 329 327 326 326 325 325 327 327 325 325 325 325 325 324
320 321 322 324 326 329 329 329 329 327 326 325 325 323 325 325 325 326 325 326 325 324
313 318 320 321 321 323 324 326 327 328 328 326 325 323 324 325 327 327 326 327 326 326
310 311 314 316 319 321 321 323 325 327 327 327 324 311 309 322 327 327 326 325 327 326
310 309 309 312 314 316 318 323 324 325 326 329 332 306 305 307 328 328 327 327 326 324
309 309 309 311 313 318 319 319 320 323 325 327 328 306 302 304 328 331 329 328 328 327
309 309 309 309 310 315 314 317 319 320 322 324 325 305 301 306 324 324 327 325 327 326
309 308 308 309 310 311 312 313 315 317 320 316 323 306 300 306 322 323 322 326 327 308
308 308 309 309 309 309 309 310 312 314 318 319 320 320 299 299 321 320 320 321 322 323
Wind_Speed
18 15 14 15 13 13 11 11 11 12 13 13 13 11 11 10 11 12 12 16 13 11
15 17 13 15 14 11 10 9 11 12 12 13 12 12 12 11 11 11 11 12 12 11
12 14 11 14 15 12 10 11 11 12 11 11 11 10 11 10 10 11 10 9 11 11
10 11 10 11 12 12 10 12 11 12 12 12 11 11 10 12 10 11 11 9 8 11
6 6 7 7 8 10 11 10 11 13 11 12 12 12 13 13 11 11 10 10 9 9
9 6 6 7 10 8 9 9 9 11 12 12 14 13 13 13 12 11 10 8 8 6
8 10 9 9 8 10 12 12 13 13 15 15 14 14 14 13 12 11 9 8 7 6
8 12 10 9 7 8 8 12 14 12 15 16 15 13 16 15 14 12 11 10 9 9
3 7 12 11 12 10 11 15 15 16 18 18 14 15 16 15 14 14 14 12 12 11
9 9 7 10 10 10 13 11 15 15 17 18 17 12 18 17 15 14 15 14 13 12
14 13 12 11 11 12 9 11 12 13 14 16 16 11 16 17 18 15 16 16 16 15
16 16 15 15 15 12 13 15 14 13 14 12 15 12 15 14 17 18 18 18 18 17
18 18 17 17 16 15 15 16 14 16 17 17 17 13 15 16 14 17 15 16 17 12
19 19 18 18 17 16 17 17 17 18 17 18 17 17 16 19 16 15 14 14 14 13
Wind_Direction
244 238 230 222 223 224 214 207 209 204 214 220 223 215 221 227 231 230 233 240 234 232
243 235 218 229 218 214 215 197 195 203 207 212 215 213 212 227 215 229 221 227 229 233
238 231 215 209 207 198 191 204 188 201 208 217 215 220 217 224 213 222 223 231 221 236
235 215 210 206 197 186 184 184 189 200 201 209 208 211 213 240 229 211 224 230 223 226
266 255 235 220 212 195 194 193 200 190 204 206 207 209 215 218 221 219 210 211 218 223
358 320 283 235 232 209 203 205 217 200 205 206 210 207 209 212 207 196 196 196 202 207
344 344 347 316 278 257 230 209 225 213 210 210 209 204 204 204 202 198 201 202 214 218
339 311 313 318 314 286 274 256 234 224 223 219 215 207 210 210 210 208 215 211 222 219
254 273 301 312 299 291 262 252 245 232 240 224 222 204 194 209 212 213 217 221 222 237
270 274 261 274 288 282 288 278 253 239 240 240 232 207 195 200 210 211 219 223 227 229
275 268 255 254 254 247 239 250 259 249 241 242 235 209 198 201 213 216 217 221 223 228
268 266 263 255 246 250 253 248 246 241 239 235 240 210 201 195 225 226 226 220 224 221
265 264 260 259 261 260 255 254 253 248 240 239 238 207 194 197 229 224 222 220 220 206
264 260 261 260 258 255 255 257 253 248 243 242 233 225 191 191 223 229 207 222 210 221